Wind_Speed
71 73 75 77 79 81 83 85 87 88 86 83 84 84 86 86 86 87 86 86 85 84 84 84 85 87 89 90 91 92 93 93 91 89 87 85 82 79
75 76 78 80 82 84 85 86 87 89 88 83 83 82 82 81 80 80 79 79 78 76 75 75 76 77 79 81 83 85 87 89 90 89 88 86 84 82
78 80 81 83 84 85 85 85 85 84 85 80 77 75 75 74 72 71 69 68 67 67 67 67 68 69 70 71 73 75 78 81 83 85 85 85 83 82
81 82 83 84 84 83 82 81 79 78 77 74 70 68 67 67 65 64 62 61 61 61 61 61 62 63 64 65 65 67 69 72 75 77 79 81 80 80
83 84 83 83 82 79 77 75 72 71 69 68 64 61 59 58 57 56 56 56 55 56 56 56 56 57 58 59 59 60 61 64 66 69 72 75 76 77
83 83 81 79 77 74 71 68 66 64 62 61 58 54 52 52 52 51 50 50 50 51 52 52 52 52 53 54 55 55 56 57 59 61 64 68 71 73
81 79 76 73 70 67 64 61 59 58 56 55 52 50 48 48 48 48 47 47 47 48 49 49 49 49 49 50 51 51 52 54 55 57 58 62 65 68
77 73 69 65 62 60 57 56 54 54 52 50 49 47 46 45 45 46 46 45 44 44 46 46 47 46 46 47 48 48 49 50 52 53 54 57 60 63
71 67 62 59 57 55 53 51 51 50 49 48 47 46 45 44 45 44 44 44 43 42 43 42 42 42 43 44 45 46 46 47 48 49 50 53 55 58
64 61 58 55 53 52 49 48 47 46 46 47 46 45 45 44 44 43 43 42 40 39 40 38 37 38 39 40 41 42 43 44 45 47 48 49 51 54
58 56 55 52 50 49 47 46 45 44 45 45 45 44 43 43 43 42 41 41 38 36 37 36 35 35 36 36 37 38 39 40 42 43 45 47 49 50
55 52 51 49 47 46 45 45 44 43 43 42 42 42 42 41 41 41 41 40 39 36 35 35 34 35 34 34 35 36 37 38 39 41 43 45 47 49
51 49 47 45 44 43 43 43 43 42 41 41 40 40 40 39 39 40 40 40 38 36 35 35 34 34 34 33 34 35 35 36 37 38 40 42 45 46
48 46 44 43 42 41 41 41 42 41 41 40 39 38 38 37 37 38 38 38 37 37 36 36 35 34 34 33 33 34 35 35 36 36 38 39 41 44
47 45 43 41 41 40 40 41 41 40 39 38 37 36 36 36 36 36 36 36 36 36 36 36 35 35 34 33 33 33 34 35 36 36 37 38 39 41
44 41 40 39 39 39 39 39 39 37 36 36 35 35 34 34 34 34 35 35 35 35 35 35 35 34 34 34 34 33 33 34 35 36 36 37 39 40
41 39 37 37 37 37 37 36 34 33 34 34 33 33 32 32 32 33 33 34 34 34 33 34 34 34 34 33 33 33 33 33 34 35 36 36 37 39
39 38 37 36 36 35 34 32 32 32 31 31 31 31 31 31 31 31 31 31 31 31 31 31 31 32 31 31 31 32 33 32 33 34 35 35 36 37
38 37 36 35 34 33 32 31 30 30 29 29 30 30 30 30 30 30 29 28 28 28 28 29 30 30 30 30 31 32 32 32 33 33 34 35 36 37
37 36 35 34 33 32 32 31 29 29 29 29 29 30 29 29 29 29 28 27 27 26 26 27 27 28 29 30 31 32 33 33 33 33 34 35 36 37
35 34 34 33 32 32 31 30 29 29 29 30 30 30 30 29 29 28 28 28 27 27 27 27 27 28 28 29 29 30 32 34 34 34 34 35 36 37
33 33 33 32 32 31 30 29 29 29 29 30 30 30 30 30 29 29 29 28 28 28 28 28 28 28 28 29 29 30 31 33 34 35 35 36 36 37
32 32 32 32 32 31 30 29 29 29 30 30 30 30 30 30 30 30 29 29 29 28 28 29 29 29 29 29 29 30 30 32 33 35 35 36 37 38
Wind_Direction
297 297 296 296 295 295 294 293 292 291 289 288 287 285 283 282 280 279 277 275 273 272 270 268 266 264 262 260 259 257 256 255 254 253 252 252 251 251
298 298 298 297 297 296 295 294 293 292 291 289 288 286 285 283 282 280 278 276 275 273 271 269 268 266 264 262 260 258 256 254 253 252 251 250 250 249
300 300 299 299 298 297 296 295 294 292 291 290 289 287 285 284 282 281 279 277 276 274 272 271 269 267 266 264 262 259 257 255 253 251 250 249 248 247
302 301 301 300 299 298 296 295 294 292 291 291 289 287 285 284 282 280 279 277 276 275 274 273 271 269 267 265 263 260 257 255 252 250 249 247 246 245
303 303 302 301 299 298 297 295 294 292 292 292 291 288 287 285 283 281 280 278 277 276 274 273 272 270 268 266 263 261 259 256 253 250 247 245 244 243
304 303 302 301 299 298 296 295 294 293 292 292 292 290 288 286 285 283 281 280 279 277 275 274 272 270 268 265 263 261 258 255 252 250 248 245 243 241
304 303 302 300 299 297 296 295 294 293 293 292 292 290 289 287 285 283 282 281 279 278 277 274 272 270 269 266 264 261 258 255 251 250 248 245 242 240
304 303 301 300 298 297 296 295 295 294 294 293 292 291 289 287 285 283 283 282 281 279 278 276 273 271 269 267 264 261 258 255 251 249 248 245 242 240
304 303 301 300 298 297 295 294 295 295 294 293 293 292 290 288 287 285 284 284 283 281 279 277 274 271 268 266 264 260 258 256 252 249 247 246 243 240
304 303 302 300 298 296 295 294 294 294 293 293 293 293 291 290 289 287 285 285 284 282 281 279 275 271 268 266 264 262 258 255 252 250 248 246 243 241
304 303 302 300 298 296 296 295 295 295 294 293 293 292 291 289 288 287 286 285 284 282 280 279 276 271 269 266 263 262 259 255 253 250 248 246 244 241
304 303 302 301 299 297 296 296 296 295 294 294 293 292 291 289 287 286 286 285 284 282 280 278 275 272 269 266 263 261 259 256 254 251 248 245 244 242
305 304 303 301 300 299 298 298 298 296 296 295 294 292 290 288 286 285 285 284 284 283 280 277 275 272 270 265 262 261 259 257 254 251 249 245 243 242
306 305 303 302 301 300 300 300 299 298 297 296 295 294 292 289 286 284 283 283 282 282 280 278 275 272 269 266 262 259 258 256 254 251 248 245 243 241
306 305 304 302 301 300 301 301 300 299 298 297 296 295 294 292 289 285 283 282 281 280 279 278 275 271 268 265 263 260 257 255 253 251 248 246 243 241
306 305 304 302 302 302 302 302 301 300 299 299 298 297 296 294 292 288 284 282 281 280 279 277 274 271 268 265 263 261 258 255 253 251 248 245 243 241
306 305 304 303 303 303 303 303 303 302 301 301 301 300 299 298 296 293 289 285 282 280 278 276 274 271 269 266 263 262 259 255 252 250 248 245 243 241
307 307 305 305 304 304 304 303 303 303 303 303 303 302 302 301 299 298 295 290 285 281 278 275 273 272 269 267 264 261 258 255 251 249 247 245 243 242
308 307 306 306 305 305 304 303 303 304 304 304 304 304 304 303 302 299 297 294 289 284 280 277 274 272 269 267 264 262 259 255 252 250 247 245 243 242
308 307 307 307 306 305 304 303 303 303 304 304 305 305 305 304 303 301 297 294 290 286 283 279 277 274 271 267 264 262 260 256 253 251 248 246 244 243
308 307 307 307 306 305 304 303 302 302 303 304 305 305 305 304 303 301 298 294 291 287 284 281 278 276 273 270 266 262 259 257 254 251 249 247 245 244
308 308 308 307 307 305 304 303 302 303 303 304 305 304 304 303 302 301 298 295 292 289 284 281 278 276 274 272 269 265 261 258 255 253 250 249 246 244
309 309 308 308 307 305 303 302 303 303 303 304 305 305 304 302 301 299 297 294 292 289 286 282 278 276 275 273 270 267 263 260 257 254 251 249 246 244
Height
5639 5631 5624 5616 5608 5600 5592 5583 5576 5572 5575 5572 5562 5554 5546 5541 5536 5532 5530 5528 5526 5524 5522 5522 5523 5524 5527 5530 5534 5538 5543 5550 5556 5563 5569 5576 5583 5590
5618 5610 5602 5594 5585 5576 5567 5559 5549 5541 5541 5545 5534 5526 5518 5513 5508 5504 5501 5499 5497 5496 5495 5494 5495 5496 5498 5501 5505 5509 5514 5521 5527 5535 5543 5550 5558 5566
5596 5587 5579 5569 5561 5551 5542 5533 5524 5514 5509 5515 5509 5500 5492 5487 5483 5479 5476 5474 5473 5472 5471 5470 5471 5472 5473 5476 5479 5483 5487 5493 5500 5507 5515 5524 5533 5543
5574 5564 5554 5544 5535 5526 5516 5508 5500 5491 5483 5484 5486 5478 5471 5465 5461 5458 5456 5454 5453 5452 5450 5449 5450 5450 5451 5453 5456 5459 5463 5468 5475 5482 5491 5501 5510 5517
5550 5540 5530 5519 5511 5501 5492 5485 5477 5470 5463 5459 5460 5456 5450 5445 5441 5439 5437 5435 5434 5433 5431 5431 5431 5431 5432 5433 5435 5439 5442 5447 5453 5459 5465 5474 5484 5493
5527 5516 5506 5496 5487 5478 5471 5464 5457 5451 5445 5440 5438 5436 5432 5428 5424 5422 5420 5419 5417 5415 5414 5414 5413 5413 5414 5415 5417 5420 5423 5427 5432 5438 5444 5452 5461 5471
5506 5494 5484 5474 5465 5457 5451 5445 5439 5433 5429 5424 5421 5419 5416 5412 5409 5406 5404 5403 5402 5400 5398 5398 5397 5397 5398 5398 5400 5402 5405 5409 5414 5419 5425 5432 5440 5449
5483 5474 5464 5455 5447 5440 5433 5427 5422 5417 5413 5408 5405 5403 5401 5397 5394 5391 5389 5388 5388 5387 5383 5383 5382 5382 5382 5383 5384 5386 5389 5392 5397 5402 5408 5414 5421 5430
5462 5453 5446 5438 5430 5424 5418 5413 5408 5403 5398 5394 5390 5388 5385 5383 5379 5377 5375 5373 5372 5371 5368 5368 5367 5367 5367 5367 5369 5371 5374 5377 5381 5386 5392 5397 5404 5412
5443 5435 5428 5422 5414 5408 5403 5399 5395 5390 5385 5380 5377 5374 5371 5368 5365 5363 5360 5359 5358 5357 5354 5354 5354 5354 5354 5354 5355 5357 5360 5363 5367 5371 5377 5382 5388 5395
5427 5419 5411 5406 5400 5393 5389 5385 5382 5377 5372 5368 5364 5361 5357 5354 5351 5349 5347 5345 5345 5344 5342 5341 5342 5341 5342 5343 5343 5345 5347 5350 5353 5358 5362 5368 5374 5380
5412 5404 5397 5390 5385 5379 5375 5371 5367 5364 5359 5355 5352 5348 5344 5341 5339 5336 5334 5332 5331 5331 5331 5329 5329 5329 5330 5332 5332 5333 5335 5338 5341 5345 5349 5354 5360 5366
5397 5390 5384 5377 5372 5367 5362 5358 5353 5349 5346 5342 5339 5336 5332 5329 5327 5324 5322 5319 5318 5318 5318 5317 5317 5317 5318 5320 5321 5322 5324 5326 5329 5333 5337 5342 5347 5352
5382 5376 5370 5365 5360 5355 5350 5346 5341 5336 5333 5329 5326 5323 5320 5317 5315 5312 5310 5308 5306 5306 5305 5305 5305 5305 5306 5308 5310 5311 5313 5315 5318 5321 5325 5330 5334 5340
5368 5363 5358 5353 5348 5343 5339 5334 5329 5325 5321 5317 5314 5311 5308 5305 5302 5300 5298 5296 5295 5294 5293 5292 5292 5293 5294 5296 5298 5300 5302 5304 5307 5310 5314 5318 5322 5328
5357 5352 5346 5341 5336 5332 5327 5322 5318 5313 5309 5306 5303 5300 5297 5294 5291 5288 5286 5284 5283 5283 5281 5280 5280 5281 5282 5284 5286 5288 5290 5293 5295 5298 5302 5306 5311 5316
5345 5341 5336 5331 5326 5321 5317 5312 5307 5303 5300 5296 5292 5289 5286 5283 5280 5277 5274 5273 5271 5271 5270 5269 5268 5269 5270 5271 5274 5276 5278 5281 5284 5286 5290 5294 5299 5304
5333 5329 5325 5320 5316 5311 5307 5302 5298 5294 5290 5287 5283 5280 5276 5273 5270 5267 5264 5262 5260 5259 5258 5258 5257 5258 5259 5260 5262 5264 5266 5269 5272 5275 5279 5283 5287 5292
5322 5318 5314 5310 5305 5301 5297 5293 5289 5285 5281 5278 5274 5271 5267 5264 5260 5257 5254 5252 5250 5249 5248 5247 5247 5247 5248 5250 5251 5252 5254 5257 5260 5264 5267 5271 5275 5280
5312 5308 5304 5299 5295 5291 5287 5283 5280 5276 5272 5269 5265 5262 5258 5255 5251 5248 5245 5243 5241 5239 5238 5237 5237 5237 5237 5239 5240 5241 5243 5245 5248 5252 5255 5259 5263 5267
5302 5298 5294 5290 5286 5282 5278 5274 5271 5267 5264 5260 5256 5253 5249 5245 5242 5239 5236 5234 5231 5230 5229 5228 5227 5227 5227 5228 5229 5230 5231 5233 5236 5239 5243 5247 5251 5255
5293 5289 5284 5280 5276 5272 5268 5265 5262 5258 5255 5251 5247 5243 5240 5236 5233 5230 5227 5224 5222 5220 5219 5218 5217 5216 5216 5217 5218 5219 5220 5221 5224 5227 5230 5235 5238 5243
5284 5279 5275 5271 5267 5263 5259 5256 5253 5249 5245 5242 5238 5234 5230 5227 5223 5220 5217 5214 5212 5210 5208 5207 5207 5206 5206 5206 5207 5207 5209 5210 5211 5214 5218 5221 5225 5229